EZS97TY LIMC-HEMA

Flight info

Callsign EZS97TY
Flight time N/A
Altitude 37000
Route ROBAS DCT IPDAB DCT LUMAV DCT NIKOL DCT VAKSU DCT DIMIS DCT SALUN N705 BOPIX N710 TAKRI P751 LXR M999 ELELI V730 MAK
Aircraft A20N/M-SDE2E3FGHIRWXY/LB1

Departure

Time 2026-04-30 12:00
Airport Milan Malpensa International Airport (LIMC)

Arrival

Time N/A
Airport Marsa Alam International Airport (HEMA)
Time Latitude Longitude Altitude Speed Heading
2026-04-30 11:22 45.64099 8.72447 740 ft 0 kts 79°
2026-04-30 11:53 45.64101 8.72461 740 ft 3 kts 79°
2026-04-30 11:53 45.64103 8.72497 740 ft 4 kts 96°
2026-04-30 11:53 45.64067 8.72527 740 ft 10 kts 160°
2026-04-30 11:54 45.63986 8.72556 739 ft 14 kts 168°
2026-04-30 11:54 45.63885 8.72585 739 ft 16 kts 169°
2026-04-30 11:54 45.63772 8.72616 740 ft 17 kts 169°
2026-04-30 11:54 45.63651 8.72649 740 ft 18 kts 168°
2026-04-30 11:55 45.63522 8.72686 739 ft 20 kts 171°
2026-04-30 11:55 45.63384 8.72723 740 ft 21 kts 169°
2026-04-30 11:55 45.63240 8.72763 739 ft 22 kts 169°
2026-04-30 11:55 45.63090 8.72803 739 ft 22 kts 169°
2026-04-30 11:56 45.62934 8.72847 740 ft 23 kts 168°
2026-04-30 11:56 45.62775 8.72889 741 ft 24 kts 169°
2026-04-30 11:56 45.62610 8.72935 741 ft 24 kts 169°
2026-04-30 11:56 45.62441 8.72984 741 ft 25 kts 168°
2026-04-30 11:57 45.62268 8.73029 740 ft 26 kts 169°
2026-04-30 11:57 45.62092 8.73078 739 ft 26 kts 169°
2026-04-30 11:57 45.61912 8.73128 741 ft 26 kts 169°
2026-04-30 11:57 45.61757 8.73188 741 ft 21 kts 142°
2026-04-30 11:58 45.61674 8.73348 741 ft 18 kts 124°
2026-04-30 11:58 45.61607 8.73490 740 ft 15 kts 119°
2026-04-30 11:58 45.61585 8.73613 740 ft 4 kts 82°
2026-04-30 11:58 45.61592 8.73673 739 ft 8 kts 77°
2026-04-30 11:59 45.61651 8.73727 739 ft 13 kts 357°
2026-04-30 11:59 45.61702 8.73713 738 ft 0 kts 349°
2026-04-30 11:59 45.61793 8.73688 739 ft 42 kts 349°
2026-04-30 11:59 45.62313 8.73546 741 ft 107 kts 349°
2026-04-30 12:00 45.63223 8.73299 741 ft 157 kts 351°
2026-04-30 12:00 45.64339 8.72993 1156 ft 163 kts 349°
2026-04-30 12:00 45.65466 8.72748 1784 ft 164 kts 359°
2026-04-30 12:00 45.66600 8.72738 2444 ft 164 kts
2026-04-30 12:01 45.67804 8.72807 2881 ft 181 kts
2026-04-30 12:01 45.69124 8.72967 3324 ft 200 kts 20°
2026-04-30 12:01 45.70185 8.74230 3855 ft 203 kts 65°
2026-04-30 12:01 45.70578 8.76143 4551 ft 204 kts 81°
2026-04-30 12:02 45.70772 8.78193 5265 ft 207 kts 85°
2026-04-30 12:02 45.70972 8.80219 5903 ft 212 kts 74°
2026-04-30 12:02 45.71707 8.82054 6533 ft 216 kts 45°
2026-04-30 12:02 45.72630 8.83745 7193 ft 219 kts 67°
2026-04-30 12:03 45.72797 8.85904 7830 ft 224 kts 100°
2026-04-30 12:03 45.71095 8.89770 8822 ft 246 kts 128°
2026-04-30 12:03 45.69984 8.91741 9292 ft 258 kts 128°
2026-04-30 12:04 45.68885 8.93763 10053 ft 259 kts 126°
2026-04-30 12:04 45.67796 8.95840 10694 ft 262 kts 125°
2026-04-30 12:04 45.66710 8.97953 11332 ft 265 kts 124°
2026-04-30 12:04 45.65618 9.00097 11952 ft 269 kts 124°
2026-04-30 12:05 45.64499 9.02263 12579 ft 273 kts 128°
2026-04-30 12:05 45.63217 9.04299 13111 ft 281 kts 130°
2026-04-30 12:05 45.61866 9.06420 13445 ft 296 kts 130°
2026-04-30 12:05 45.60439 9.08670 13627 ft 318 kts 130°
2026-04-30 12:06 45.58918 9.11067 13835 ft 338 kts 130°
2026-04-30 12:06 45.57290 9.13629 14038 ft 358 kts 130°
2026-04-30 12:06 45.55582 9.16312 14447 ft 368 kts 130°
2026-04-30 12:06 45.53855 9.19018 15121 ft 370 kts 130°
2026-04-30 12:07 45.52114 9.21744 15746 ft 373 kts 130°
2026-04-30 12:07 45.50357 9.24494 16376 ft 376 kts 130°
2026-04-30 12:07 45.48590 9.27259 17000 ft 379 kts 130°
2026-04-30 12:07 45.46806 9.30048 17620 ft 383 kts 130°
2026-04-30 12:08 45.45002 9.32865 18222 ft 386 kts 130°
2026-04-30 12:08 45.43183 9.35702 18799 ft 390 kts 130°
2026-04-30 12:08 45.41346 9.38566 19207 ft 393 kts 130°
2026-04-30 12:08 45.39493 9.41450 19748 ft 396 kts 130°
2026-04-30 12:09 45.37622 9.44360 20238 ft 400 kts 130°
2026-04-30 12:09 45.35754 9.47263 20716 ft 404 kts 130°
2026-04-30 12:09 45.33849 9.50218 21236 ft 407 kts 130°
2026-04-30 12:09 45.31921 9.53206 21744 ft 410 kts 130°
2026-04-30 12:10 45.29986 9.56201 22239 ft 413 kts 130°
2026-04-30 12:10 45.28033 9.59221 22731 ft 416 kts 130°
2026-04-30 12:10 45.26065 9.62261 23224 ft 420 kts 130°
2026-04-30 12:10 45.24080 9.65324 23712 ft 423 kts 130°
2026-04-30 12:11 45.22080 9.68408 24125 ft 427 kts 129°
2026-04-30 12:11 45.20270 9.71739 24458 ft 427 kts 119°
2026-04-30 12:11 45.18891 9.75456 24861 ft 426 kts 109°
2026-04-30 12:11 45.17959 9.79438 25236 ft 426 kts 102°
2026-04-30 12:12 45.17164 9.83444 25600 ft 429 kts 103°
2026-04-30 12:12 45.16347 9.87520 25970 ft 431 kts 103°
2026-04-30 12:12 45.15519 9.91623 26327 ft 434 kts 103°
2026-04-30 12:12 45.14680 9.95758 26675 ft 437 kts 103°
2026-04-30 12:13 45.13835 9.99912 26975 ft 441 kts 103°
2026-04-30 12:13 45.12975 10.04134 27180 ft 448 kts 103°
2026-04-30 12:13 45.12104 10.08392 27542 ft 450 kts 103°
2026-04-30 12:13 45.11230 10.12656 27867 ft 452 kts 103°
2026-04-30 12:14 45.10349 10.16947 28184 ft 455 kts 103°
2026-04-30 12:14 45.09461 10.21260 28489 ft 458 kts 103°
2026-04-30 12:14 45.08567 10.25595 28789 ft 460 kts 103°
2026-04-30 12:14 45.07677 10.29902 29074 ft 463 kts 104°
2026-04-30 12:15 45.06767 10.34294 29359 ft 465 kts 104°
2026-04-30 12:15 45.05855 10.38692 29630 ft 468 kts 104°
2026-04-30 12:15 45.04930 10.43138 29911 ft 470 kts 104°
2026-04-30 12:15 45.04003 10.47583 30188 ft 472 kts 104°
2026-04-30 12:16 45.03069 10.52055 30439 ft 475 kts 104°
2026-04-30 12:16 45.02128 10.56547 30666 ft 477 kts 104°
2026-04-30 12:16 45.01192 10.61006 30918 ft 479 kts 104°
2026-04-30 12:16 45.00243 10.65521 31155 ft 481 kts 104°
2026-04-30 12:17 44.98324 10.74609 31705 ft 482 kts 104°
2026-04-30 12:17 44.97362 10.79153 31970 ft 484 kts 104°
2026-04-30 12:17 44.96393 10.83724 32256 ft 484 kts 104°
2026-04-30 12:18 44.95759 10.86733 32470 ft 483 kts 103°
2026-04-30 12:18 44.94593 10.92801 32852 ft 482 kts 102°
2026-04-30 12:18 44.93751 10.97384 33137 ft 482 kts 102°
2026-04-30 12:18 44.92904 11.01971 33411 ft 482 kts 102°
2026-04-30 12:19 44.92339 11.05000 33584 ft 482 kts 102°
2026-04-30 12:19 44.91479 11.09571 33855 ft 482 kts 103°
2026-04-30 12:19 44.90613 11.14136 34105 ft 482 kts 103°
2026-04-30 12:19 44.89741 11.18710 34349 ft 481 kts 103°
2026-04-30 12:20 44.88868 11.23272 34566 ft 481 kts 103°
2026-04-30 12:20 44.87995 11.27825 34775 ft 480 kts 103°
2026-04-30 12:20 44.87121 11.32370 34985 ft 480 kts 103°
2026-04-30 12:20 44.86245 11.36914 35180 ft 480 kts 103°
2026-04-30 12:21 44.85380 11.41394 35367 ft 479 kts 103°
2026-04-30 12:21 44.84502 11.45932 35559 ft 479 kts 103°
2026-04-30 12:21 44.83622 11.50467 35742 ft 480 kts 103°
2026-04-30 12:21 44.82740 11.55000 35908 ft 480 kts 103°
2026-04-30 12:22 44.81858 11.59525 36090 ft 479 kts 103°
2026-04-30 12:22 44.80811 11.63987 36256 ft 480 kts 109°
2026-04-30 12:22 44.79590 11.68370 36415 ft 480 kts 109°
2026-04-30 12:22 44.78378 11.72755 36572 ft 480 kts 109°
2026-04-30 12:23 44.77187 11.77083 36674 ft 481 kts 109°
2026-04-30 12:23 44.75971 11.81495 36704 ft 484 kts 109°
2026-04-30 12:23 44.74748 11.85918 36836 ft 484 kts 109°
2026-04-30 12:23 44.73522 11.90339 36988 ft 484 kts 109°
2026-04-30 12:24 44.72294 11.94760 37139 ft 483 kts 109°
2026-04-30 12:24 44.71071 11.99151 37279 ft 483 kts 109°
2026-04-30 12:24 44.68618 12.07937 37294 ft 482 kts 109°
2026-04-30 12:25 44.66175 12.16658 37295 ft 482 kts 109°
2026-04-30 12:25 44.63696 12.25474 37288 ft 483 kts 110°
2026-04-30 12:26 44.61232 12.34206 37301 ft 483 kts 110°
2026-04-30 12:26 44.58749 12.42973 37302 ft 483 kts 110°
2026-04-30 12:27 44.56263 12.51723 37334 ft 483 kts 110°
2026-04-30 12:27 44.53763 12.60488 37300 ft 483 kts 110°
2026-04-30 12:28 44.51260 12.69235 37295 ft 483 kts 110°
2026-04-30 12:28 44.48768 12.77911 37287 ft 483 kts 110°
2026-04-30 12:29 44.46238 12.86689 37276 ft 483 kts 110°
2026-04-30 12:29 44.43723 12.95389 37280 ft 487 kts 110°
2026-04-30 12:30 44.41164 13.04202 37270 ft 488 kts 110°
2026-04-30 12:30 44.38605 13.12987 37262 ft 488 kts 110°
2026-04-30 12:31 44.36038 13.21769 37274 ft 488 kts 110°
2026-04-30 12:31 44.33468 13.30531 37255 ft 487 kts 111°
2026-04-30 12:32 44.30908 13.39228 37253 ft 487 kts 111°
2026-04-30 12:32 44.28326 13.47969 37249 ft 487 kts 111°
2026-04-30 12:33 44.25739 13.56700 37245 ft 487 kts 111°
2026-04-30 12:33 44.23141 13.65434 37246 ft 487 kts 111°
2026-04-30 12:34 44.20007 13.73838 37243 ft 488 kts 120°
2026-04-30 12:34 44.16553 13.81988 37240 ft 488 kts 120°
2026-04-30 12:35 44.13134 13.90109 37228 ft 489 kts 120°
2026-04-30 12:35 44.09686 13.98282 37230 ft 490 kts 120°
2026-04-30 12:36 44.06223 14.06454 37236 ft 490 kts 120°
2026-04-30 12:36 44.02743 14.14637 37241 ft 491 kts 120°
2026-04-30 12:37 43.99278 14.22758 37252 ft 492 kts 120°
2026-04-30 12:37 43.95781 14.30933 37242 ft 493 kts 120°
2026-04-30 12:38 43.92265 14.39127 37242 ft 494 kts 120°
2026-04-30 12:38 43.88737 14.47327 37247 ft 494 kts 120°
2026-04-30 12:39 43.85207 14.55509 37245 ft 495 kts 120°
2026-04-30 12:39 43.81678 14.63665 37235 ft 493 kts 121°
2026-04-30 12:40 43.78167 14.71755 37230 ft 493 kts 121°
2026-04-30 12:40 43.74627 14.79892 37230 ft 493 kts 121°
2026-04-30 12:41 43.71080 14.88020 37230 ft 493 kts 121°
2026-04-30 12:41 43.67531 14.96131 37219 ft 493 kts 121°
2026-04-30 12:42 43.63974 15.04237 37225 ft 493 kts 121°
2026-04-30 12:42 43.60438 15.12271 37197 ft 493 kts 121°
2026-04-30 12:43 43.56872 15.20353 37200 ft 493 kts 121°
2026-04-30 12:43 43.53298 15.28429 37191 ft 493 kts 121°
2026-04-30 12:44 43.49717 15.36501 37188 ft 494 kts 122°
2026-04-30 12:44 43.46125 15.44573 37183 ft 494 kts 122°
2026-04-30 12:45 43.42528 15.52635 37179 ft 495 kts 122°